EW8783 Weather Reports


time (UTC)temp
C
wind
direction
speed
KPH
gust
KPH
rain 1hr
cm
rain 24hr
cm
rain mn
cm
humidity
%
barometer
mb
20260503024527 9 202 0.0 0.0 0.00 0.03 0.03 1 1009.1
20260503023027 9 202 0.0 0.0 0.00 0.03 0.03 1 1009.1
20260503021526 9 202 0.0 0.0 0.00 0.03 0.03 1 1009.1
20260503020026 9 202 0.0 0.0 0.00 0.03 0.03 1 1009.2
20260503014537 9 202 0.0 0.0 0.00 0.03 0.03 1 1009.5
20260503013027 9 202 0.0 0.0 0.00 0.03 0.03 1 1009.6
20260503011524 9 202 0.0 1.6 0.00 0.03 0.03 1 1009.4
20260503010024 10 202 0.0 1.6 0.00 0.03 0.03 1 1009.3
20260503004525 10 177 0.0 0.0 0.00 0.03 0.03 1 1009.3
20260503003021 10 177 0.0 1.6 0.00 0.03 0.03 1 1009.2
20260503001516 10 177 0.0 3.2 0.00 0.03 0.03 1 1009.1
20260503000015 10 177 0.0 3.2 0.00 0.03 0.03 1 1009.1
20260502234508 10 177 0.0 1.6 0.00 0.03 0.03 1 1009.1
20260502233004 10 180 0.0 3.2 0.00 0.03 0.03 1 1009.2
20260502231611 10 180 0.0 3.2 0.00 0.03 0.03 1 1009.2
20260502230055 10 180 0.0 3.2 0.00 0.03 0.03 1 1009.4
20260502224551 10 178 0.0 6.4 0.00 0.03 0.03 1 1009.2
20260502223051 10 227 0.0 3.2 0.00 0.03 0.03 1 1009.1
20260502221555 10 187 0.0 3.2 0.00 0.03 0.03 1 1009.1
20260502220042 11 186 1.6 8.0 0.00 0.03 0.03 1 1009.1
20260502214533 11 152 1.6 8.0 0.00 0.03 0.03 1 1009.1
20260502213029 11 152 3.2 11.3 0.00 0.03 0.03 1 1009.0
20260502211535 11 213 3.2 8.0 0.00 0.03 0.03 1 1009.1
20260502210020 10 166 1.6 8.0 0.00 0.03 0.03 1 1009.0
20260502204516 10 133 6.4 16.1 0.00 0.03 0.03 1 1008.9
20260502203011 11 198 4.8 8.0 0.00 0.03 0.03 1 1009.0
20260502201507 11 218 1.6 8.0 0.00 0.03 0.03 1 1009.2
20260502200003 11 175 1.6 8.0 0.00 0.03 0.03 1 1009.2
20260502194559 11 162 6.4 16.1 0.00 0.03 0.03 1 1009.4
20260502193055 11 205 3.2 12.9 0.00 0.03 0.03 1 1009.7
20260502191549 11 156 3.2 9.7 0.00 0.03 0.03 1 1009.9
20260502190050 11 203 1.6 9.7 0.00 0.03 0.03 1 1010.0
20260502184543 11 188 1.6 6.4 0.00 0.03 0.03 1 1010.0
20260502183041 11 191 1.6 4.8 0.03 0.03 0.03 1 1009.9
20260502181532 10 146 0.0 3.2 0.03 0.03 0.03 1 1010.1
20260502163003 13 142 3.2 9.7 0.00 0.00 0.00 53 1010.2
20260502161559 13 140 4.8 9.7 0.00 0.00 0.00 53 1010.1
20260502151545 12 223 1.6 4.8 0.00 0.00 0.00 40 1011.0
20260502123056 10 211 1.6 8.0 0.00 0.00 0.00 16 1011.4
20260502121552 10 219 3.2 6.4 0.00 0.00 0.00 18 1011.5
20260502114541 9 218 1.6 8.0 0.00 0.00 0.00 5 1010.9
20260502113037 9 224 0.0 3.2 0.00 0.00 0.00 7 1010.8
20260502111531 8 224 3.2 6.4 0.00 0.00 0.00 7 1010.9
20260502110027 8 175 0.0 3.2 0.00 0.00 0.00 3 1011.0
20260502104538 8 175 0.0 0.0 0.00 0.00 0.00 1 1010.7
20260502103025 8 175 0.0 1.6 0.00 0.00 0.00 1 1010.6
20260502101514 8 184 0.0 4.8 0.00 0.00 0.00 1 1010.6
20260502070021 7 244 0.0 0.0 0.00 0.00 0.00 1 1010.3
20260502064514 7 244 0.0 0.0 0.00 0.00 0.00 1 1010.4
20260502063010 7 244 0.0 0.0 0.00 0.00 0.00 1 1010.5
20260502061504 7 244 0.0 0.0 0.00 0.00 0.00 2 1010.6
20260502054556 7 244 0.0 0.0 0.00 0.00 0.00 12 1010.7
20260502053053 7 244 0.0 0.0 0.00 0.00 0.00 20 1010.8
20260502051622 7 244 0.0 0.0 0.00 0.00 0.00 27 1010.7
20260502050047 8 244 0.0 0.0 0.00 0.00 0.00 36 1010.8
20260502044544 8 244 0.0 0.0 0.00 0.00 0.00 42 1010.8
20260502043044 8 244 0.0 0.0 0.00 0.00 0.00 49 1010.9
20260502041541 8 244 0.0 0.0 0.00 0.00 0.00 52 1010.9
20260502040036 8 244 0.0 0.0 0.00 0.00 0.00 54 1010.9
20260502034542 9 244 0.0 0.0 0.00 0.00 0.00 56 1010.8
20260502033040 10 244 0.0 0.0 0.00 0.00 0.00 55 1010.8
20260502031523 10 244 0.0 3.2 0.00 0.00 0.00 55 1010.7
20260502030018 10 244 0.0 0.0 0.00 0.00 0.00 55 1010.6